Location: Charbonni�res
(45.9952°N, 2.9982°E)
Time: 17:19:01
(UTC+00:00)

Gbstr 26 Del rocket - Pass Details

Date: 29 November 2020
Orbit: 493 x 1263 km, 51.8° (Epoch: 22 January)

Event Time Altitude Azimuth Distance (km) Brightness Sun altitude
Exits shadow 06:25:58 - 277° (W) 1,835 4.9 -7.2°
Reaches altitude 10° 06:26:23 10° 273° (W) 1,703 4.7 -7.2°
Maximum altitude 06:29:16 21° 223° (SW) 1,208 4.4 -6.7°
Drops below altitude 10° 06:32:20 10° 174° (S) 1,823 5.9 -6.2°
Sets 06:35:06 0° 158° (SSE) 2,817 7.3 -5.8°
